Date String (YYYY-MM-DD hh:mm:ss) UTC,Instrument flags,Ambient pressure (hPa),Sample flow (lpm),Bypass flow (lpm),Sample temperature (°C),Ambient temperature (°C),ASC tube jacket temperature (°C),LED temperature (°C),Box temperature (°C),Sample RH (%),Span deviation,Mass concentration (μg/m³),Mass concentration (μg/m³),Mass concentration (μg/m³)
DateTimeUTC,F1_M11,P_M11,Q1_M11,Q2_M11,T1_M11,T2_M11,T3_M11,T4_M11,T5_M11,U1_M11,ZSPAN_M11,X0_M11,X2_M11,X1_M11
2021-11-08 11:00:00,,0829.3,5.00,0.00,28.1,27.2,00.0,37.2,29.9,14.3,0000.0,0009.87,0003.34,0002.18
2021-11-08 11:01:00,,0829.3,5.00,0.00,28.1,27.2,00.0,37.2,29.9,14.3,0000.0,0009.35,0003.31,0002.14
2021-11-08 11:02:00,,0829.2,5.00,0.00,28.1,27.2,00.0,37.2,29.9,14.2,0000.0,0009.40,0003.26,0002.12
2021-11-08 11:03:00,,0829.2,5.00,0.00,28.1,27.2,00.0,37.2,29.9,14.2,0000.0,0010.02,0003.28,0002.11
2021-11-08 11:04:00,,0829.2,5.01,0.00,28.1,27.1,00.0,37.2,29.9,14.2,0000.0,0010.39,0003.24,0002.09
2021-11-08 11:05:00,,0829.2,5.00,0.00,28.1,27.1,00.0,37.2,29.8,14.2,0000.0,0010.16,0003.19,0002.08
2021-11-08 11:06:00,,0829.2,5.00,0.00,28.1,27.1,00.0,37.2,29.8,14.2,0000.0,0011.36,0003.19,0002.04
2021-11-08 11:07:00,,0829.2,5.00,0.00,28.1,27.1,00.0,37.1,29.8,14.3,0000.0,0011.89,0003.17,0002.02
2021-11-08 11:08:00,,0829.3,4.99,0.00,28.1,27.1,00.0,37.1,29.8,14.3,0000.0,0011.30,0003.11,0002.00
2021-11-08 11:09:00,,0829.3,5.01,0.00,28.1,27.1,00.0,37.1,29.8,14.3,0000.0,0010.70,0003.05,0001.99
2021-11-08 11:10:00,,0829.2,4.99,0.00,28.1,27.1,00.0,37.1,29.8,14.3,0000.0,0010.56,0003.02,0001.99
2021-11-08 11:11:00,,0829.2,4.99,0.00,28.1,27.1,00.0,37.1,29.8,14.4,0000.0,0010.43,0002.92,0001.98
2021-11-08 11:12:00,,0829.2,5.01,0.00,28.1,27.1,00.0,37.1,29.8,14.4,0000.0,0010.29,0002.92,0001.98
2021-11-08 11:13:00,,0829.2,5.00,0.00,28.1,27.1,00.0,37.1,29.8,14.4,0000.0,0010.24,0002.92,0001.98
2021-11-08 11:14:00,,0829.2,4.99,0.00,28.1,27.1,00.0,37.1,29.8,14.4,0000.0,0009.64,0002.93,0001.98
2021-11-08 11:15:00,,0829.2,5.01,0.00,28.1,27.1,00.0,37.1,29.8,14.5,0000.0,0008.96,0003.00,0001.98
2021-11-08 11:16:00,,0829.2,4.99,0.00,28.0,27.1,00.0,37.1,29.8,14.5,0000.0,0009.03,0003.06,0002.00
2021-11-08 11:17:00,,0829.3,4.99,0.00,28.0,27.1,00.0,37.1,29.8,14.5,0000.0,0008.71,0003.12,0002.01
2021-11-08 11:18:00,,0829.3,5.00,0.00,28.0,27.0,00.0,37.1,29.8,14.5,0000.0,0008.92,0003.13,0002.01
2021-11-08 11:19:00,,0829.4,5.00,0.00,28.0,27.0,00.0,37.1,29.8,14.5,0000.0,0009.05,0003.15,0002.01
2021-11-08 11:20:00,,0829.5,5.01,0.00,28.0,27.0,00.0,37.1,29.8,14.5,0000.0,0009.08,0003.16,0002.01
2021-11-08 11:21:00,,0829.5,4.99,0.00,28.0,27.0,00.0,37.1,29.7,14.5,0000.0,0009.09,0003.17,0002.01
2021-11-08 11:22:00,,0829.5,4.99,0.00,28.0,27.0,00.0,37.1,29.7,14.5,0000.0,0009.08,0003.20,0002.01
2021-11-08 11:23:00,,0829.5,5.00,0.00,28.0,27.0,00.0,37.1,29.7,14.5,0000.0,0008.63,0003.18,0002.01
2021-11-08 11:24:00,,0829.5,4.99,0.00,28.0,27.0,00.0,37.1,29.7,14.5,0000.0,0008.32,0003.19,0002.00
2021-11-08 11:25:00,,0829.5,5.02,0.00,28.0,27.0,00.0,37.1,29.7,14.5,0000.0,0008.33,0003.18,0002.01
2021-11-08 11:26:00,,0829.6,5.01,0.00,28.0,27.0,00.0,37.0,29.7,14.5,0000.0,0008.48,0003.20,0002.02
2021-11-08 11:27:00,,0829.6,4.99,0.00,28.0,27.0,00.0,37.0,29.8,14.4,0000.0,0008.56,0003.22,0002.02
2021-11-08 11:28:00,,0829.8,5.00,0.00,28.0,27.0,00.0,37.0,29.7,14.4,0000.0,0008.17,0003.20,0002.03
2021-11-08 11:29:00,,0829.6,5.00,0.00,28.0,27.0,00.0,37.0,29.7,14.4,0000.0,0007.22,0003.19,0002.04
2021-11-08 11:30:00,,0829.7,5.00,0.00,28.0,27.0,00.0,37.0,29.7,14.4,0000.0,0007.55,0003.19,0002.05
2021-11-08 11:31:00,,0829.6,5.00,0.00,28.0,27.0,00.0,37.0,29.7,14.4,0000.0,0007.55,0003.22,0002.07
2021-11-08 11:32:00,,0829.6,5.02,0.00,28.0,27.0,00.0,37.0,29.7,14.4,0000.0,0007.56,0003.24,0002.08
2021-11-08 11:33:00,,0829.7,4.99,0.00,28.0,27.0,00.0,37.0,29.7,14.4,0000.0,0007.42,0003.22,0002.09
2021-11-08 11:34:00,,0829.8,5.00,0.00,28.0,26.9,00.0,37.0,29.7,14.4,0000.0,0007.44,0003.23,0002.10
2021-11-08 11:35:00,,0829.7,5.00,0.00,27.9,26.9,00.0,37.0,29.7,14.4,0000.0,0007.46,0003.22,0002.11
2021-11-08 11:36:00,,0829.7,5.00,0.00,27.9,26.9,00.0,37.0,29.7,14.4,0000.0,0007.50,0003.25,0002.12
2021-11-08 11:37:00,,0829.7,4.98,0.00,27.9,26.9,00.0,37.0,29.7,14.4,0000.0,0007.31,0003.20,0002.12
2021-11-08 11:38:00,,0829.8,5.01,0.00,27.9,26.9,00.0,37.0,29.7,14.4,0000.0,0007.14,0003.19,0002.11
2021-11-08 11:39:00,,0829.8,5.00,0.00,27.9,26.9,00.0,37.0,29.7,14.4,0000.0,0007.09,0003.19,0002.11
2021-11-08 11:40:00,,0829.8,5.00,0.00,27.9,26.9,00.0,37.0,29.7,14.4,0000.0,0007.18,0003.18,0002.10
2021-11-08 11:41:00,,0829.9,4.99,0.00,27.9,26.9,00.0,37.0,29.7,14.4,0000.0,0006.79,0003.23,0002.10
2021-11-08 11:42:00,,0829.9,5.00,0.00,27.9,26.9,00.0,37.0,29.6,14.4,0000.0,0006.86,0003.25,0002.10
2021-11-08 11:43:00,,0829.9,5.00,0.00,27.9,26.9,00.0,36.9,29.6,14.4,0000.0,0006.96,0003.26,0002.10
2021-11-08 11:44:00,,0829.9,5.00,0.00,27.9,26.9,00.0,36.9,29.7,14.4,0000.0,0006.86,0003.24,0002.10
2021-11-08 11:45:00,,0829.9,5.00,0.00,27.9,26.9,00.0,36.9,29.7,14.4,0000.0,0007.48,0003.24,0002.10
2021-11-08 11:46:00,,0829.8,5.00,0.00,27.9,26.9,00.0,36.9,29.7,14.4,0000.0,0008.70,0003.26,0002.10
2021-11-08 11:47:00,,0829.9,5.01,0.00,27.9,26.9,00.0,36.9,29.7,14.4,0000.0,0008.76,0003.25,0002.10
2021-11-08 11:48:00,,0829.9,5.01,0.00,27.9,26.9,00.0,36.9,29.6,14.4,0000.0,0009.01,0003.29,0002.11
2021-11-08 11:49:00,,0829.9,4.99,0.00,27.9,26.9,00.0,36.9,29.6,14.4,0000.0,0009.06,0003.30,0002.11
2021-11-08 11:50:00,,0829.9,5.00,0.00,27.8,26.9,00.0,36.9,29.6,14.4,0000.0,0009.03,0003.32,0002.14
2021-11-08 11:51:00,,0830.0,5.01,0.00,27.8,26.9,00.0,36.9,29.6,14.5,0000.0,0008.77,0003.30,0002.16
2021-11-08 11:52:00,,0830.0,5.00,0.00,27.8,26.9,00.0,36.9,29.6,14.5,0000.0,0008.80,0003.25,0002.16
2021-11-08 11:53:00,,0830.1,5.01,0.00,27.8,26.9,00.0,36.9,29.6,14.5,0000.0,0009.50,0003.25,0002.15
2021-11-08 11:54:00,,0830.1,5.00,0.00,27.8,26.8,00.0,36.9,29.6,14.4,0000.0,0010.00,0003.27,0002.15
2021-11-08 11:55:00,,0830.1,5.00,0.00,27.8,26.8,00.0,36.9,29.6,14.4,0000.0,0010.35,0003.31,0002.16
2021-11-08 11:56:00,,0830.0,5.01,0.00,27.8,26.8,00.0,36.9,29.6,14.5,0000.0,0010.07,0003.33,0002.17
2021-11-08 11:57:00,,0829.9,5.00,0.00,27.8,26.8,00.0,36.9,29.5,14.5,0000.0,0009.33,0003.33,0002.18
2021-11-08 11:58:00,,0829.9,5.00,0.00,27.8,26.8,00.0,36.8,29.6,14.6,0000.0,0009.31,0003.30,0002.18
2021-11-08 11:59:00,,0829.9,5.00,0.00,27.8,26.8,00.0,36.8,29.6,14.6,0000.0,0009.22,0003.26,0002.16
